Regional Weather Roundup
Issued by NWS Little Rock, AR

Home | Current Version | Previous Version | Graphics & Text | Print | Product List | Glossary On
Versions: 1 2 3 4 5 6 7 8 9 10 11 12 13 14 15 16 17 18 19 20 21 22 23 24 25 26 27 28 29 30 31 32 33 34 35 36 37 38 39 40 41 42 43 44 45 46 47 48 49 50
000
ASUS44 KLZK 270705
RWRLZK

WEATHER ROUNDUP FOR ARKANSAS
NATIONAL WEATHER SERVICE LITTLE ROCK AR
200 AM CDT SUN JUL 27 2014

NOTE: "FAIR" INDICATES FEW OR NO CLOUDS BELOW 12,000 FEET WITH NO
SIGNIFICANT WEATHER AND/OR OBSTRUCTIONS TO VISIBILITY.

ARZ001-003-010-029-270800-
NORTHWEST ARKANSAS

CITY           SKY/WX    TMP DP  RH WIND       PRES   REMARKS
FAYETTEVILLE   CLEAR     78  71  79 SW8       29.98F
FORT SMITH     CLEAR     77  72  84 CALM      29.95S
HARRISON       CLEAR     77  71  82 VRB3      29.98S
ROGERS         CLEAR     79  70  74 SW12      29.99R
SILOAM SPGS    CLEAR     77  66  69 SW6       29.99R
HIGHFILL       CLEAR     76  71  85 S6        29.98R
$$

ARZ004-005-016-270800-
NORTH CENTRAL ARKANSAS

CITY           SKY/WX    TMP DP  RH WIND       PRES   REMARKS
BATESVILLE     CLEAR     79  73  83 CALM      29.94S
FLIPPIN        CLEAR     75  72  88 CALM      29.94S
MTN HOME       CLEAR     76  73  91 SW5       29.94F
$$

ARZ040-041-270800-
WEST CENTRAL ARKANSAS

CITY           SKY/WX    TMP DP  RH WIND       PRES   REMARKS
MENA           PTCLDY    81  73  78 CALM      30.02R HX  85
MOUNT IDA      CLEAR     74  72  93 CALM      29.97S FOG
$$

ARZ009-017-025-026-028-270800-
NORTHEAST ARKANSAS

CITY           SKY/WX    TMP DP  RH WIND       PRES   REMARKS
CORNING        FAIR      79  77  94 SW8       29.92S
JONESBORO      CLEAR     80  74  81 SW12      29.93S HX  85
NEWPORT        CLEAR     80  76  87 SW8       29.95R HX  85
WALNUT RIDGE   CLEAR     79  73  83 SW9       29.92S
BLYTHEVILLE    MOCLDY    81  75  82 SW9       29.92F HX  87
$$

ARZ022-023-033-042-044-270800-
CENTRAL ARKANSAS

CITY           SKY/WX    TMP DP  RH WIND       PRES   REMARKS
LITTLE ROCK    PTCLDY    79  73  82 SW6       29.96F
N LITTLE ROCK    N/A     80  75  85 SW7       29.96F HX  85
JACKSONVILLE   CLEAR     75  73  91 CALM      29.96S
SEARCY         CLEAR     75  75 100 W5        29.96S FOG
HOT SPRINGS    CLEAR     78  73  84 W3        29.99S
RUSSELLVILLE   CLEAR     76  73  91 CALM      29.96S
CLINTON        FAIR      73  73 100 CALM      29.96F FOG
$$

ARZ036-270800-
EAST ARKANSAS

CITY           SKY/WX    TMP DP  RH WIND       PRES   REMARKS
WEST MEMPHIS   CLEAR     79  77  94 SW5       29.95S
$$

ARZ050-053-066-070-073-270800-
SOUTHWEST ARKANSAS

CITY           SKY/WX    TMP DP  RH WIND       PRES   REMARKS
ARKADELPHIA    FAIR      76  76 100 CALM      29.98S
CAMDEN         PTCLDY    77  73  88 CALM      29.98F
TEXARKANA      PTCLDY    79  74  84 S6        29.99F
EL DORADO      PTCLDY    76  74  93 CALM      30.00F
DE QUEEN       FOG       74  73  97 CALM      29.96F VSB 1/2
$$

ARZ056-057-069-270800-
SOUTHEAST ARKANSAS

CITY           SKY/WX    TMP DP  RH WIND       PRES   REMARKS
PINE BLUFF     CLEAR     77  74  90 S5        29.97F
STUTTGART      CLEAR     77  72  83 S8        29.97S
MONTICELLO     CLEAR     82  74  76 SW8       29.98F HX  88

$$




USA.gov is the U.S. government's official web portal to all federal, state and local government web resources and services.